Location: Little Suamico
(44.7175°N, 88.0093°W)
Time: 08:36:50
(UTC+00:00)

N. Korean satellite - Visible Passes

Search period start: 17 April 2021 00:00
Search period end: 27 April 2021 00:00
Orbit: 452 x 499 km, 97.2° (Epoch: 16 April)

Date Brightness Start Highest point End Pass type
(mag) Time Alt. Az. Time Alt. Az. Time Alt. Az.
17 Apr 9.8 10:14:01 10° ENE 10:15:43 13° E 10:17:24 10° ESE visible
20 Apr 9.5 10:25:38 10° NE 10:28:07 18° E 10:30:35 10° SE visible
24 Apr 9.9 10:11:53 10° ENE 10:13:14 12° E 10:14:34 10° ESE visible
